{"data":{"norad_id":59413,"epoch":"2026-05-24T20:32:12.175872Z","epoch_age_seconds":90588,"freshness":"FRESH","line1":"1 59413U 24064R   26144.85569648  .00000271  00000+0  19382-4 0  9992","line2":"2 59413  43.0042 339.1513 0001130 272.5912  87.4811 15.27575027120952","mean_motion":15.27575027,"eccentricity":0.000113,"inclination_deg":43.0042,"raan_deg":339.1513,"arg_perigee_deg":272.5912,"mean_anomaly_deg":87.4811,"bstar":1.9382e-5,"rev_number":12095,"period_min":94.267055597787,"perigee_km":482.28867131954,"apogee_km":483.83930274261,"semimajor_km":6861.2009870311,"source":"CELESTRAK","updated_at":"2026-05-25T13:38:18.941671Z"}}